Time,TemperatureF,DewpointF,PressureIn,WindDirection,WindDirectionDegrees,WindSpeedMPH,WindSpeedGustMPH,Humidity,HourlyPrecipIn,Conditions,Clouds,dailyrainin,SoftwareType,DateUTC
2013-04-02 00:14:00,46.4,45.0,29.70,SSE,152,6.0,-999.0,94,-99.99,,,0.00,weatherlink.com 1.10,2013-04-02 07:14:00,
2013-04-02 00:29:00,46.2,44.0,29.70,SSE,159,0.0,-999.0,93,-99.99,,,0.00,weatherlink.com 1.10,2013-04-02 07:29:00,
2013-04-02 00:44:00,45.7,44.0,29.70,SSE,159,0.0,-999.0,93,-99.99,,,0.00,weatherlink.com 1.10,2013-04-02 07:44:00,
2013-04-02 00:59:00,45.8,44.0,29.70,SSE,159,0.0,-999.0,94,-99.99,,,0.00,weatherlink.com 1.10,2013-04-02 07:59:00,
2013-04-02 01:14:00,46.2,45.0,29.71,SSE,159,0.0,-999.0,94,-99.99,,,0.00,weatherlink.com 1.10,2013-04-02 08:14:00,
2013-04-02 01:29:00,46.6,45.0,29.71,SSE,158,0.0,-999.0,94,-99.99,,,0.00,weatherlink.com 1.10,2013-04-02 08:29:00,
2013-04-02 01:44:00,46.8,45.0,29.71,SSE,157,0.0,-999.0,93,-99.99,,,0.00,weatherlink.com 1.10,2013-04-02 08:44:00,
2013-04-02 01:59:00,46.3,44.0,29.72,SSE,157,0.0,-999.0,93,-99.99,,,0.00,weatherlink.com 1.10,2013-04-02 08:59:00,
2013-04-02 02:14:00,46.6,45.0,29.72,SSE,159,0.0,-999.0,94,-99.99,,,0.00,weatherlink.com 1.10,2013-04-02 09:14:00,
2013-04-02 02:29:00,46.1,44.0,29.72,SSE,157,0.0,-999.0,93,-99.99,,,0.00,weatherlink.com 1.10,2013-04-02 09:29:00,
2013-04-02 02:44:00,45.4,44.0,29.71,SSE,158,0.0,-999.0,93,-99.99,,,0.00,weatherlink.com 1.10,2013-04-02 09:44:00,
2013-04-02 02:59:00,44.8,43.0,29.71,SSE,158,0.0,-999.0,94,-99.99,,,0.00,weatherlink.com 1.10,2013-04-02 09:59:00,
2013-04-02 03:14:00,45.0,44.0,29.71,SSE,158,0.0,-999.0,95,-99.99,,,0.00,weatherlink.com 1.10,2013-04-02 10:14:00,
2013-04-02 03:29:00,45.5,44.0,29.71,SSE,158,0.0,-999.0,95,-99.99,,,0.00,weatherlink.com 1.10,2013-04-02 10:29:00,
2013-04-02 03:44:00,45.9,45.0,29.71,SSE,157,0.0,-999.0,95,-99.99,,,0.00,weatherlink.com 1.10,2013-04-02 10:44:00,
2013-04-02 03:59:00,45.9,45.0,29.71,SSE,157,0.0,-999.0,95,-99.99,,,0.00,weatherlink.com 1.10,2013-04-02 10:59:00,
2013-04-02 04:14:00,45.9,45.0,29.70,SSE,157,0.0,-999.0,95,-99.99,,,0.00,weatherlink.com 1.10,2013-04-02 11:14:00,
2013-04-02 04:29:00,45.6,44.0,29.70,SSE,159,0.0,-999.0,95,-99.99,,,0.00,weatherlink.com 1.10,2013-04-02 11:29:00,
2013-04-02 04:44:00,45.0,43.0,29.70,SSE,165,0.0,-999.0,94,-99.99,,,0.00,weatherlink.com 1.10,2013-04-02 11:44:00,
2013-04-02 04:59:00,43.8,43.0,29.70,SSE,164,0.0,-999.0,95,-99.99,,,0.00,weatherlink.com 1.10,2013-04-02 11:59:00,
2013-04-02 05:14:00,43.9,43.0,29.70,SSE,167,0.0,-999.0,95,-99.99,,,0.00,weatherlink.com 1.10,2013-04-02 12:14:00,
2013-04-02 05:29:00,44.1,43.0,29.69,SSE,165,0.0,-999.0,95,-99.99,,,0.00,weatherlink.com 1.10,2013-04-02 12:29:00,
2013-04-02 05:45:00,44.1,43.0,29.70,SSE,165,0.0,-999.0,95,-99.99,,,0.00,weatherlink.com 1.10,2013-04-02 12:45:00,
2013-04-02 06:00:00,44.5,44.0,29.70,SE,128,0.0,-999.0,96,-99.99,,,0.00,weatherlink.com 1.10,2013-04-02 13:00:00,
2013-04-02 06:15:00,45.0,44.0,29.70,SE,132,6.0,-999.0,96,-99.99,,,0.00,weatherlink.com 1.10,2013-04-02 13:15:00,
2013-04-02 06:30:00,45.3,44.0,29.70,SE,125,0.0,-999.0,96,-99.99,,,0.00,weatherlink.com 1.10,2013-04-02 13:30:00,
2013-04-02 06:45:00,46.1,45.0,29.70,SE,128,0.0,-999.0,96,-99.99,,,0.00,weatherlink.com 1.10,2013-04-02 13:45:00,
2013-04-02 07:00:00,45.4,44.0,29.70,East,82,0.0,-999.0,93,-99.99,,,0.00,weatherlink.com 1.10,2013-04-02 14:00:00,
2013-04-02 07:15:00,45.0,44.0,29.70,East,84,0.0,-999.0,95,-99.99,,,0.00,weatherlink.com 1.10,2013-04-02 14:15:00,
2013-04-02 07:30:00,45.6,44.0,29.71,East,96,0.0,-999.0,95,-99.99,,,0.00,weatherlink.com 1.10,2013-04-02 14:30:00,
2013-04-02 07:45:00,48.3,47.0,29.71,ESE,111,0.0,-999.0,94,-99.99,,,0.00,weatherlink.com 1.10,2013-04-02 14:45:00,
2013-04-02 08:00:00,50.1,47.0,29.72,East,87,0.0,-999.0,90,-99.99,,,0.00,weatherlink.com 1.10,2013-04-02 15:00:00,
2013-04-02 08:15:00,51.1,48.0,29.72,NNE,33,0.0,-999.0,88,-99.99,,,0.00,weatherlink.com 1.10,2013-04-02 15:15:00,
2013-04-02 08:30:00,51.7,48.0,29.72,NE,34,0.0,-999.0,87,-99.99,,,0.00,weatherlink.com 1.10,2013-04-02 15:30:00,
2013-04-02 08:45:00,52.8,49.0,29.72,NNE,33,0.0,-999.0,87,-99.99,,,0.00,weatherlink.com 1.10,2013-04-02 15:45:00,
2013-04-02 09:00:00,54.1,50.0,29.72,NE,36,0.0,-999.0,87,-99.99,,,0.00,weatherlink.com 1.10,2013-04-02 16:00:00,
2013-04-02 09:15:00,54.9,50.0,29.71,NE,36,0.0,-999.0,83,-99.99,,,0.00,weatherlink.com 1.10,2013-04-02 16:15:00,
2013-04-02 09:30:00,54.6,50.0,29.71,SW,232,0.0,-999.0,84,-99.99,,,0.00,weatherlink.com 1.10,2013-04-02 16:30:00,
2013-04-02 09:45:00,56.6,50.0,29.72,SW,219,3.0,-999.0,78,-99.99,,,0.00,weatherlink.com 1.10,2013-04-02 16:45:00,
2013-04-02 10:00:00,59.0,52.0,29.72,South,188,0.0,-999.0,78,-99.99,,,0.00,weatherlink.com 1.10,2013-04-02 17:00:00,
2013-04-02 10:15:00,61.2,51.0,29.72,SE,142,0.0,-999.0,70,-99.99,,,0.00,weatherlink.com 1.10,2013-04-02 17:15:00,
2013-04-02 10:30:00,60.8,52.0,29.71,NNE,28,0.0,-999.0,73,-99.99,,,0.00,weatherlink.com 1.10,2013-04-02 17:30:00,
2013-04-02 10:45:00,59.7,51.0,29.71,NE,52,0.0,-999.0,74,-99.99,,,0.00,weatherlink.com 1.10,2013-04-02 17:45:00,
2013-04-02 11:00:00,60.2,51.0,29.71,NE,45,0.0,-999.0,72,-99.99,,,0.00,weatherlink.com 1.10,2013-04-02 18:00:00,
2013-04-02 11:15:00,60.6,51.0,29.73,NNE,28,3.0,-999.0,70,-99.99,,,0.00,weatherlink.com 1.10,2013-04-02 18:15:00,
2013-04-02 11:30:00,60.4,50.0,29.72,NNE,29,0.0,-999.0,69,-99.99,,,0.00,weatherlink.com 1.10,2013-04-02 18:30:00,
2013-04-02 11:45:00,61.7,53.0,29.72,NE,46,5.0,-999.0,72,-99.99,,,0.00,weatherlink.com 1.10,2013-04-02 18:45:00,
2013-04-02 12:00:00,62.1,53.0,29.72,NE,37,2.0,-999.0,71,-99.99,,,0.00,weatherlink.com 1.10,2013-04-02 19:00:00,
2013-04-02 12:15:00,61.4,54.0,29.72,North,360,8.0,-999.0,76,-99.99,,,0.00,weatherlink.com 1.10,2013-04-02 19:15:00,
2013-04-02 12:30:00,61.5,53.0,29.71,NNE,17,6.0,-999.0,74,-99.99,,,0.00,weatherlink.com 1.10,2013-04-02 19:30:00,
2013-04-02 12:45:00,61.5,53.0,29.71,NNE,32,5.0,-999.0,74,-99.99,,,0.00,weatherlink.com 1.10,2013-04-02 19:45:00,
2013-04-02 13:00:00,62.1,53.0,29.71,NE,37,6.0,-999.0,73,-99.99,,,0.00,weatherlink.com 1.10,2013-04-02 20:00:00,
2013-04-02 13:15:00,61.2,52.0,29.70,North,9,3.0,-999.0,73,-99.99,,,0.00,weatherlink.com 1.10,2013-04-02 20:15:00,
2013-04-02 13:30:00,60.4,52.0,29.70,NNE,21,4.0,-999.0,75,-99.99,,,0.00,weatherlink.com 1.10,2013-04-02 20:30:00,
2013-04-02 13:45:00,60.8,52.0,29.70,NNE,17,0.0,-999.0,74,-99.99,,,0.00,weatherlink.com 1.10,2013-04-02 20:45:00,
2013-04-02 13:59:00,60.3,52.0,29.69,NE,52,4.0,-999.0,73,-99.99,,,0.00,weatherlink.com 1.10,2013-04-02 20:59:00,
2013-04-02 14:14:00,60.6,52.0,29.69,NNE,17,6.0,-999.0,72,-99.99,,,0.00,weatherlink.com 1.10,2013-04-02 21:14:00,
2013-04-02 14:29:00,60.9,50.0,29.69,ENE,77,0.0,-999.0,68,-99.99,,,0.00,weatherlink.com 1.10,2013-04-02 21:29:00,
2013-04-02 14:44:00,61.5,50.0,29.68,NE,41,3.0,-999.0,67,-99.99,,,0.00,weatherlink.com 1.10,2013-04-02 21:44:00,
2013-04-02 14:59:00,62.0,51.0,29.68,North,5,3.0,-999.0,67,-99.99,,,0.00,weatherlink.com 1.10,2013-04-02 21:59:00,
2013-04-02 15:14:00,62.5,51.0,29.68,NNE,17,2.0,-999.0,66,-99.99,,,0.00,weatherlink.com 1.10,2013-04-02 22:14:00,
2013-04-02 15:29:00,62.6,52.0,29.68,North,355,5.0,-999.0,68,-99.99,,,0.00,weatherlink.com 1.10,2013-04-02 22:29:00,
2013-04-02 15:44:00,61.4,52.0,29.68,NNW,343,5.0,-999.0,72,-99.99,,,0.00,weatherlink.com 1.10,2013-04-02 22:44:00,
2013-04-02 16:14:00,60.3,52.0,29.67,NNE,28,7.0,-999.0,73,-99.99,,,0.00,weatherlink.com 1.10,2013-04-02 23:14:00,
2013-04-02 16:29:00,59.4,51.0,29.66,North,9,0.0,-999.0,75,-99.99,,,0.00,weatherlink.com 1.10,2013-04-02 23:29:00,
2013-04-02 16:44:00,60.0,52.0,29.66,NNW,346,0.0,-999.0,76,-99.99,,,0.00,weatherlink.com 1.10,2013-04-02 23:44:00,
2013-04-02 16:59:00,60.6,52.0,29.67,WNW,286,0.0,-999.0,73,-99.99,,,0.00,weatherlink.com 1.10,2013-04-02 23:59:00,
2013-04-02 17:14:00,61.2,51.0,29.66,WNW,300,0.0,-999.0,69,-99.99,,,0.00,weatherlink.com 1.10,2013-04-03 00:14:00,
2013-04-02 17:29:00,61.7,51.0,29.67,NW,315,0.0,-999.0,67,-99.99,,,0.00,weatherlink.com 1.10,2013-04-03 00:29:00,
2013-04-02 17:44:00,61.9,50.0,29.66,WNW,298,0.0,-999.0,66,-99.99,,,0.00,weatherlink.com 1.10,2013-04-03 00:44:00,
2013-04-02 17:59:00,62.2,50.0,29.66,WNW,298,1.0,-999.0,64,-99.99,,,0.00,weatherlink.com 1.10,2013-04-03 00:59:00,
2013-04-02 18:14:00,62.1,49.0,29.66,WNW,298,0.0,-999.0,62,-99.99,,,0.00,weatherlink.com 1.10,2013-04-03 01:14:00,
2013-04-02 18:29:00,61.5,48.0,29.66,WNW,303,0.0,-999.0,61,-99.99,,,0.00,weatherlink.com 1.10,2013-04-03 01:29:00,
2013-04-02 18:44:00,60.9,47.0,29.66,NW,304,0.0,-999.0,61,-99.99,,,0.00,weatherlink.com 1.10,2013-04-03 01:44:00,
2013-04-02 18:59:00,59.7,47.0,29.66,WNW,303,0.0,-999.0,63,-99.99,,,0.00,weatherlink.com 1.10,2013-04-03 01:59:00,
2013-04-02 19:14:00,57.5,46.0,29.66,NW,304,0.0,-999.0,65,-99.99,,,0.00,weatherlink.com 1.10,2013-04-03 02:14:00,
2013-04-02 19:29:00,54.8,48.0,29.66,WNW,303,0.0,-999.0,77,-99.99,,,0.00,weatherlink.com 1.10,2013-04-03 02:29:00,
2013-04-02 19:44:00,52.8,45.0,29.66,NW,304,0.0,-999.0,74,-99.99,,,0.00,weatherlink.com 1.10,2013-04-03 02:44:00,
2013-04-02 19:59:00,52.3,46.0,29.66,WNW,303,0.0,-999.0,79,-99.99,,,0.00,weatherlink.com 1.10,2013-04-03 02:59:00,
2013-04-02 20:14:00,50.8,45.0,29.67,WNW,291,0.0,-999.0,80,-99.99,,,0.00,weatherlink.com 1.10,2013-04-03 03:14:00,
2013-04-02 20:29:00,50.0,45.0,29.67,NW,306,0.0,-999.0,82,-99.99,,,0.00,weatherlink.com 1.10,2013-04-03 03:29:00,
2013-04-02 20:44:00,50.1,46.0,29.67,WNW,303,0.0,-999.0,84,-99.99,,,0.00,weatherlink.com 1.10,2013-04-03 03:44:00,
2013-04-02 20:59:00,50.1,46.0,29.68,WNW,303,0.0,-999.0,85,-99.99,,,0.00,weatherlink.com 1.10,2013-04-03 03:59:00,
2013-04-02 21:14:00,50.4,45.0,29.69,WNW,303,0.0,-999.0,83,-99.99,,,0.00,weatherlink.com 1.10,2013-04-03 04:14:00,
2013-04-02 21:29:00,49.8,45.0,29.69,WNW,303,0.0,-999.0,83,-99.99,,,0.00,weatherlink.com 1.10,2013-04-03 04:29:00,
2013-04-02 21:44:00,49.6,45.0,29.70,WNW,286,0.0,-999.0,84,-99.99,,,0.00,weatherlink.com 1.10,2013-04-03 04:44:00,
2013-04-02 21:59:00,49.9,45.0,29.70,WNW,286,0.0,-999.0,83,-99.99,,,0.00,weatherlink.com 1.10,2013-04-03 04:59:00,
2013-04-02 22:14:00,49.1,44.0,29.70,WNW,286,0.0,-999.0,83,-99.99,,,0.00,weatherlink.com 1.10,2013-04-03 05:14:00,
2013-04-02 22:29:00,48.5,44.0,29.70,WNW,286,0.0,-999.0,84,-99.99,,,0.00,weatherlink.com 1.10,2013-04-03 05:29:00,
2013-04-02 22:44:00,48.4,45.0,29.70,SW,215,0.0,-999.0,87,-99.99,,,0.00,weatherlink.com 1.10,2013-04-03 05:44:00,
2013-04-02 22:59:00,48.4,45.0,29.70,SW,215,0.0,-999.0,87,-99.99,,,0.00,weatherlink.com 1.10,2013-04-03 05:59:00,
2013-04-02 23:14:00,48.9,45.0,29.70,SW,215,0.0,-999.0,86,-99.99,,,0.00,weatherlink.com 1.10,2013-04-03 06:14:00,
2013-04-02 23:29:00,49.9,45.0,29.69,SW,215,0.0,-999.0,84,-99.99,,,0.00,weatherlink.com 1.10,2013-04-03 06:29:00,
2013-04-02 23:44:00,50.8,45.0,29.68,SE,129,4.0,-999.0,81,-99.99,,,0.00,weatherlink.com 1.10,2013-04-03 06:44:00,
2013-04-02 23:59:00,51.7,45.0,29.68,SSE,150,9.0,-999.0,79,-99.99,,,0.00,weatherlink.com 1.10,2013-04-03 06:59:00,